Tracking 23728 objects as of 23-Sep-2021
HD Live streaming from Space Station
objects crossing your sky now

HONGYAN 1

Track HONGYAN 1 now!
10-day predictions


NORAD ID: 43914
Int'l Code: 2018-112F
Perigee: 1,097.8 km
Apogee: 1,107.6 km
Inclination: 50.0 °
Period: 107.2 minutes
Semi major axis: 7473 km
RCS: Unknown
Launch date: December 29, 2018
Source: People's Republic of China (PRC)
Launch site: Jiuquan Satellite Launch Center, China (JSC)
aabbcc
Your satellite tracking list
Your tracking list is empty




NASA's NSSDC Master Catalog

Two Line Element Set (TLE):
1 43914U 18112F   21266.51349646 -.00000138  00000-0 -15706-4 0  9996
2 43914  50.0085 110.9130 0006578  37.9629 322.1711 13.43699722134346
Source of the keplerian elements: AFSPC